DECAYED
Showing default

FLOCK 4BE 10, 60503 (Decayed)

Orbit data source: Space-Track

FLOCK 4BE 10, 60503 was a payload satellite owned by Planet (US) in LEO that was launched on Fri, 16 Aug 2024 UTC via an FALCON 9 launch vehicle from the Air Force Western Test Range (AFWTR). Payload-class satellites include a variety of spacecraft equipped with specific instruments for various scientific and technological missions. These include communications satellites like Starlink; space stations such as the ISS; scientific satellites like the Hubble; Earth observation satellites from companies like Planet Labs, Umbra, and HawkEye 360; GPS; miniature CubeSats for education and research; and military/defense satellites.

Not visible in the next 10 days
Identifier
60503, 2024-149AM
Orbit
Decayed
Country
Flag of USUS
Related business
Manufacturer
Planet
Mission
Decayed Commercial Imaging
Bus & Motor
CUBESAT 3U, Unknown motor
Mass
5.7 kg wet, 5.7 kg dry
Launch date (UTC)
2024-08-16 (2 years ago)
Launch vehicle
FALCON 9
Launch site
Air Force Western Test Range (AFWTR)
Object type
Payload
Rocket body
Debris
Shape & HBR
Box + 2 Pan, 1.0 m
Radar Cross Section
0.072 m², Medium (>0.1 m² and < 1m²)

Expand to show TLE details & history
Last TLE update: 4 months ago

TLE from 4 months ago
0 FLOCK 4BE 10
1 60503U 24149AM  26102.65818087  .10048573  25063-5  81653-3 0  9993
2 60503  97.3386 191.6461 0014591 270.6414  89.3213 16.39223247 92583
Epoch: 2026-04-12T15:47Z
TLE epoch observation values (Epoch: 2026-04-12T15:47:46.827Z)
Latitude
-0.00003°
Longitude
113.84101°
Altitude
171.022 km
Speed
7.804 km/s
True Right ascension
12h 46m 35s
True Declination
0° 00' 00"
Sunlit
Object was in full shadow at epoch
Visualization orbit readout
Latitude
Unknown
Longitude
Unknown
Altitude
Unknown
Speed
Unknown
Apparent Right ascension
Unknown
Apparent Declination
Unknown
Sunlit
N/A
Visualization observer readout
Local Sidereal Time
12:12:38
Azimuth
Unknown
Elevation
Unknown
Doppler factor
Unknown
Orbital elements
Apogee altitude
174.222 km
Perigee altitude
155.129 km
Semi-major axis
6,542.812 km
Eccentricity
0.00146
Inclination
97.3386°
RAAN
191.6461°
Arg. of periapsis
270.6414°
True anomaly
89.48849°
Mean anomaly
89.3213°
Eccentric anomaly
89.4049°
Mean motion
4.10106 °/min
Orbital period
87.78 mins
BSTAR
0.00081653
Loading maneuver chart data...
Computing Atmospheric mass density...
Loading historical data...
Loading historical data...
Loading historical data...
Loading historical data...
Loading historical data...
Loading historical data...
Loading historical data...

Documentation

Showing up to 5 results
|